Weather History for Tanger, Morocco

Change the Weather History Date:

Friday, September 6, 2013

  Actual Average Record
Temperature  
Mean Temperature 70 °F -  
Max Temperature 78 °F 78 °F 91 °F (2006)
Min Temperature 63 °F 62 °F 59 °F (2003)
Cooling Degree Days 6    
Growing Degree Days 20 (Base 50)    
Moisture  
Dew Point 63 °F    
Average Humidity 75    
Maximum Humidity 88    
Minimum Humidity 48    
Precipitation  
Precipitation 0.00 in 0.03 in - ()
Sea Level Pressure  
Sea Level Pressure 29.95 in    
Wind  
Wind Speed 4 mph ()    
Max Wind Speed 12 mph    
Max Gust Speed -    
Visibility 4.4 miles    
Events      
Averages and records for this station are not official NWS values.
T = Trace of Precipitation, MM = Missing Value Source: Averaged Metar Reports

Daily Weather History Graph

Daily Weather History Graph

Search for Another Location

Airport:

Trip Planner

Search our weather history database for the weather conditions in past years. The results will help you decide how hot, cold, wet, or windy it might be!

Date:

Astronomy

Sep. 06, 2013 Rise Set
Actual Time 6:59 AM WEST 7:43 PM WEST
Civil Twilight 6:33 AM WEST 8:09 PM WEST
Nautical Twilight 6:02 AM WEST 8:40 PM WEST
Astronomical Twilight 5:31 AM WEST 9:11 PM WEST
Moon 7:53 AM WEST (9/6) 8:05 PM WEST (9/6)
Length of Visible Light 13h 36m
Length of Day
12h 44m
New Moon, 1% of the Moon is Illuminated
Sep 6
New Moon
Sep 12
First Quarter
Sep 19
Full
Sep 27
Last Quarter
Oct 5
New

Hourly Weather History & Observations

Time (WEST) Temp. Dew Point Humidity Pressure Visibility Wind Dir Wind Speed Gust Speed Precip Events Conditions
12:00 AM 64.4 °F 59.0 °F 83% 29.98 in 5.0 mi Calm Calm - N/A   Scattered Clouds
1:00 AM 64 °F 59 °F 79% 29.96 in 5 mi Calm Calm - -   Partly Cloudy
1:00 AM 64.4 °F 59.0 °F 83% 29.95 in 5.0 mi Calm Calm - N/A   Scattered Clouds
3:30 AM 66.2 °F 62.6 °F 88% 29.92 in - Calm Calm - N/A   Unknown
4:00 AM 67 °F 64 °F 86% 29.94 in - SSE 3.5 mph - -  
4:00 AM 68.0 °F 64.4 °F 88% 29.92 in - SSE 3.5 mph - N/A   Unknown
4:30 AM 66.2 °F 62.6 °F 88% 29.92 in - SSW 2.3 mph - N/A   Unknown
5:00 AM 68.0 °F 64.4 °F 88% 29.92 in - South 3.5 mph - N/A   Unknown
5:30 AM 68.0 °F 64.4 °F 88% 29.92 in 3.7 mi Calm Calm - N/A   Mostly Cloudy
6:00 AM 66.2 °F 62.6 °F 88% 29.92 in 3.7 mi SE 3.5 mph - N/A   Mostly Cloudy
7:00 AM 64 °F 60 °F 81% 29.95 in 4 mi Calm Calm - -   Mostly Cloudy
7:00 AM 64.4 °F 59.0 °F 83% 29.95 in 3.7 mi Calm Calm - N/A   Mostly Cloudy
8:00 AM 64.4 °F 60.8 °F 88% 29.95 in 3.7 mi Calm Calm - N/A   Mostly Cloudy
8:30 AM 68.0 °F 64.4 °F 88% 29.95 in 3.7 mi South 3.5 mph - N/A   Mostly Cloudy
9:00 AM 69.8 °F 64.4 °F 83% 29.95 in 3.7 mi ESE 3.5 mph - N/A   Scattered Clouds
9:30 AM 71.6 °F 64.4 °F 78% 29.98 in 3.7 mi South 3.5 mph - N/A   Mostly Cloudy
10:00 AM 73 °F 64 °F 66% 29.98 in 4 mi South 3.5 mph - -   Mostly Cloudy
10:00 AM 73.4 °F 64.4 °F 73% 29.98 in 3.7 mi SSE 3.5 mph - N/A   Mostly Cloudy
10:30 AM 73.4 °F 62.6 °F 69% 29.98 in 5.0 mi West 5.8 mph - N/A   Mostly Cloudy
11:00 AM 75.2 °F 60.8 °F 61% 29.98 in 5.0 mi West 5.8 mph - N/A   Mostly Cloudy
11:30 AM 75.2 °F 60.8 °F 61% 29.98 in 5.0 mi West 6.9 mph - N/A   Mostly Cloudy
12:00 PM 77.0 °F 60.8 °F 57% 29.98 in 5.0 mi WSW 8.1 mph - N/A   Mostly Cloudy
12:30 PM 75.2 °F 60.8 °F 61% 29.95 in 5.0 mi West 8.1 mph - N/A   Mostly Cloudy
1:00 PM 77 °F 61 °F 48% 29.97 in 5 mi WNW 8.1 mph - -   Mostly Cloudy
1:00 PM 77.0 °F 60.8 °F 57% 29.95 in 5.0 mi WNW 8.1 mph - N/A   Mostly Cloudy
1:30 PM 77.0 °F 62.6 °F 61% 29.95 in 5.0 mi WNW 11.5 mph - N/A   Scattered Clouds
2:00 PM 77.0 °F 60.8 °F 57% 29.95 in 5.0 mi West 11.5 mph - N/A   Scattered Clouds
2:30 PM 75.2 °F 62.6 °F 65% 29.95 in 5.0 mi West 10.4 mph - N/A   Scattered Clouds
3:00 PM 77.0 °F 62.6 °F 61% 29.92 in 5.0 mi West 10.4 mph - N/A   Mostly Cloudy
3:30 PM 75.2 °F 60.8 °F 61% 29.92 in 5.0 mi WNW 9.2 mph - N/A   Mostly Cloudy
4:00 PM 75 °F 63 °F 57% 29.93 in 5 mi NW 9.2 mph - -   Partly Cloudy
4:00 PM 75.2 °F 62.6 °F 65% 29.92 in 5.0 mi NW 9.2 mph - N/A   Mostly Cloudy
4:30 PM 75.2 °F 62.6 °F 65% 29.92 in 5.0 mi WNW 9.2 mph - N/A   Mostly Cloudy
5:30 PM 75.2 °F 62.6 °F 65% 29.92 in 5.0 mi WNW 9.2 mph - N/A   Mostly Cloudy
6:00 PM 73.4 °F 64.4 °F 73% 29.92 in 5.0 mi WNW 8.1 mph - N/A   Mostly Cloudy
6:30 PM 71.6 °F 64.4 °F 78% 29.92 in 4.3 mi West 8.1 mph - N/A   Mostly Cloudy
7:00 PM 71 °F 65 °F 75% 29.93 in 4 mi West 8.1 mph - -   Partly Cloudy
7:00 PM 71.6 °F 64.4 °F 78% 29.92 in 4.3 mi West 8.1 mph - N/A   Mostly Cloudy
7:30 PM 69.8 °F 64.4 °F 83% 29.92 in 4.3 mi West 6.9 mph - N/A   Mostly Cloudy
8:00 PM 69.8 °F 64.4 °F 83% 29.95 in 3.7 mi WSW 5.8 mph - N/A   Scattered Clouds
8:30 PM 69.8 °F 66.2 °F 88% 29.95 in 3.7 mi WSW 4.6 mph - N/A   Scattered Clouds
9:00 PM 69.8 °F 66.2 °F 88% 29.95 in 3.7 mi SW 4.6 mph - N/A   Scattered Clouds
9:30 PM 69.8 °F 64.4 °F 83% 29.98 in 3.7 mi SW 3.5 mph - N/A   Scattered Clouds
10:00 PM 71 °F 65 °F 76% 29.99 in 4 mi SSW 4.6 mph - -   Partly Cloudy
10:00 PM 69.8 °F 64.4 °F 83% 29.98 in 3.7 mi SSW 4.6 mph - N/A   Scattered Clouds
10:30 PM 69.8 °F 64.4 °F 83% 29.98 in 3.7 mi SW 5.8 mph - N/A   Scattered Clouds
11:00 PM 69.8 °F 64.4 °F 83% 29.98 in 3.7 mi SW 4.6 mph - N/A   Scattered Clouds
11:30 PM 69.8 °F 64.4 °F 83% 29.98 in 3.7 mi WSW 4.6 mph - N/A   Scattered Clouds